Wind_Speed
22 24 24 9 13 18 16 15 13 12 14 18 18 14 13 12 13 14 13 11 12 13 13 11 10 11 12 13 16 17 15 13 11 10 10 10 11 11 11 12 13 14 15 15 16 16 16 17 15
28 25 18 14 20 12 13 13 13 14 16 16 14 13 10 13 13 13 12 12 11 12 12 10 11 11 13 15 16 14 12 11 10 11 11 12 13 13 12 14 15 16 17 17 17 17 17 17 16
23 20 19 20 19 15 14 14 14 18 16 13 11 13 11 14 12 13 12 11 11 10 10 10 10 11 13 16 15 13 11 10 10 12 12 13 14 14 14 16 17 18 18 17 17 17 17 16 15
25 21 16 15 15 18 17 17 17 14 14 15 14 13 13 12 11 14 10 11 10 9 7 9 9 10 14 15 12 10 9 8 10 11 13 15 16 16 17 18 19 18 18 17 17 17 17 16 16
17 18 21 21 16 16 15 13 10 11 13 12 12 10 8 9 10 10 10 9 8 7 7 7 7 10 12 14 12 8 8 8 9 11 15 17 18 18 20 21 19 18 17 17 17 17 17 17 17
29 18 19 18 17 16 13 10 8 11 11 11 10 7 9 9 10 9 8 7 5 6 5 5 4 8 13 15 11 8 8 7 11 14 15 18 20 19 20 20 18 17 17 17 17 17 17 16 17
27 22 14 16 15 13 12 7 7 8 12 12 12 12 10 10 10 8 7 4 3 4 5 4 4 6 14 12 10 8 9 9 11 12 14 16 19 19 18 18 17 16 16 16 17 17 16 16 17
18 22 9 14 12 11 10 8 7 8 13 14 14 12 11 10 9 7 5 3 1 3 4 3 5 5 9 13 8 8 9 10 10 11 15 14 16 18 17 15 16 15 15 16 17 16 14 15 16
21 14 14 10 10 10 8 6 7 10 10 10 6 6 10 8 7 5 4 2 1 1 2 3 7 12 17 13 8 8 10 12 13 12 13 15 13 16 16 14 14 14 14 15 16 14 13 15 14
17 10 10 9 9 10 8 7 7 9 10 10 8 7 5 7 6 5 4 3 3 2 3 4 14 16 14 10 8 9 12 12 14 14 11 14 12 15 15 13 13 14 13 13 14 10 13 14 14
13 8 7 9 9 8 8 8 7 6 4 6 8 7 6 5 4 2 2 3 4 3 4 7 12 12 12 8 10 12 14 14 13 11 11 10 11 13 13 13 12 11 14 14 8 12 12 4 16
14 9 8 7 8 7 6 5 6 5 6 8 5 2 2 4 6 5 3 2 2 2 6 7 11 11 10 8 11 10 13 13 18 11 12 9 8 9 11 9 8 8 12 9 19 8 13 5 10
11 11 7 7 6 5 5 4 4 3 4 4 5 3 0 1 4 6 2 3 4 5 9 9 12 11 10 9 10 5 6 23 17 12 2 14 10 8 7 8 7 6 7 8 8 7 7 8 12
10 9 8 6 4 3 4 4 1 1 2 3 3 3 2 0 6 2 4 5 5 8 12 13 13 9 9 9 9 7 7 8 9 13 8 8 11 9 5 5 4 3 4 5 5 6 3 7 15
19 3 6 7 5 4 1 3 2 3 3 2 3 4 5 3 6 2 4 6 8 9 14 12 11 10 7 7 7 8 9 8 10 10 8 4 7 5 4 7 3 3 3 1 2 5 5 1 1
12 6 6 4 3 3 4 3 5 5 6 5 5 5 4 5 5 5 2 5 10 10 9 9 9 7 5 5 6 5 6 6 6 6 7 6 6 4 2 2 1 1 3 2 1 1 2 3 4
16 5 3 4 2 3 3 4 5 5 7 7 7 7 7 6 5 5 4 4 7 11 10 10 9 7 4 2 2 3 5 4 4 4 4 4 3 3 3 4 5 4 3 3 2 3 2 1 3
11 11 14 11 8 4 11 4 2 4 6 6 7 9 8 7 7 6 6 6 7 9 10 9 8 8 8 7 6 5 3 5 4 3 4 5 5 5 5 5 5 5 6 6 7 6 6 4 3
1 12 19 6 2 12 14 4 6 11 9 7 5 5 7 7 9 8 7 7 8 9 9 10 10 10 10 11 12 13 9 6 5 6 8 6 6 8 7 6 6 6 6 8 7 8 8 7 7
2 9 10 15 9 6 20 16 7 11 11 9 5 5 5 7 9 9 9 8 8 8 9 9 10 11 11 11 12 12 12 12 13 15 9 11 7 9 11 10 9 8 9 9 9 10 9 10 9
6 5 13 12 18 17 19 12 14 8 8 10 10 6 5 5 7 7 8 9 8 9 10 10 11 12 12 12 13 13 12 15 17 19 15 16 15 14 15 13 13 14 12 12 10 13 11 12 12
5 14 14 19 18 25 16 17 11 15 12 12 10 13 11 7 6 6 6 7 6 9 10 11 14 14 15 14 14 15 16 17 18 19 18 20 17 17 22 20 19 16 17 17 16 16 14 15 15
13 27 24 17 14 27 23 22 16 20 25 27 19 15 15 16 11 11 10 9 10 10 12 14 15 16 16 18 17 17 19 21 22 22 22 17 27 22 27 22 23 22 19 21 21 20 19 19 19
27 28 26 20 12 19 21 34 21 25 13 17 20 16 16 19 20 17 19 14 14 16 17 18 18 18 12 18 22 18 19 22 24 24 26 29 25 18 26 26 25 17 21 22 24 24 23 23 23
25 21 12 12 11 12 10 21 28 27 29 22 26 26 19 20 24 24 21 22 16 19 18 20 21 26 5 20 19 19 22 27 25 26 27 29 28 29 31 27 28 24 16 25 26 24 23 24 24
26 23 16 12 9 18 16 16 29 33 32 27 30 39 37 26 25 31 31 28 23 19 25 26 28 26 26 22 22 25 26 31 30 30 29 29 24 27 32 35 29 29 30 31 28 27 26 25 25
24 24 24 23 22 20 22 27 33 29 25 29 33 39 40 36 33 33 27 28 23 23 27 30 29 29 30 29 27 30 30 34 30 31 34 32 34 31 31 31 32 34 34 28 31 30 30 30 29
28 18 16 23 24 26 19 27 29 24 21 32 28 27 28 35 37 39 34 31 27 30 31 32 33 34 35 35 31 30 34 34 33 38 32 35 40 34 33 33 34 35 36 35 33 32 33 33 35
21 31 32 19 18 19 17 27 30 35 38 36 38 39 34 30 35 39 37 38 37 36 37 36 39 40 39 39 40 41 38 36 42 43 52 41 40 39 41 30 30 42 38 34 34 37 37 37 39
17 20 20 26 32 24 22 25 29 34 36 36 38 40 38 36 33 38 40 41 40 39 39 41 44 44 42 42 46 40 54 44 41 37 38 38 36 34 27 25 32 39 41 32 40 39 41 42 44
Wind_Direction
123 134 136 130 96 107 117 133 139 129 135 148 154 155 127 118 121 122 123 117 113 115 114 113 96 82 80 96 108 109 108 105 93 82 76 78 76 76 78 82 81 79 75 77 87 89 82 77 67
110 121 149 94 96 119 132 140 138 133 141 151 152 138 139 125 133 127 112 114 115 116 117 112 99 88 96 109 117 115 107 96 88 83 82 84 80 81 80 83 85 84 86 89 88 87 83 75 65
125 124 83 115 112 104 121 132 133 142 144 146 138 134 138 138 139 117 116 119 111 110 111 108 99 91 106 120 118 112 102 89 90 91 89 87 85 82 84 89 91 91 93 91 88 85 79 73 64
120 107 118 105 116 108 117 128 133 144 155 154 152 150 143 149 136 123 131 122 111 107 108 97 90 99 116 123 113 102 86 75 89 91 93 92 90 88 89 94 95 97 95 90 89 81 75 67 64
131 129 78 125 124 124 121 128 158 170 168 155 154 144 146 154 132 131 120 111 108 107 106 95 99 109 118 121 111 99 73 77 97 102 102 95 94 95 98 99 99 97 97 90 84 79 71 68 73
125 134 117 131 140 137 138 137 140 166 171 160 153 134 133 137 129 135 133 137 113 92 91 88 107 132 130 125 130 98 76 97 106 107 104 101 98 101 102 100 97 98 96 92 85 78 72 75 82
124 108 119 145 148 141 131 125 133 152 164 162 151 149 139 139 152 155 145 150 110 82 70 39 339 224 136 136 119 95 98 95 106 111 107 107 106 101 100 100 93 92 96 94 87 80 77 84 86
93 120 104 138 148 124 131 140 138 147 166 162 155 151 153 164 170 179 164 181 138 87 72 38 27 359 112 130 121 102 97 102 106 115 107 103 109 107 103 99 93 89 93 95 88 81 82 88 91
90 133 131 131 133 130 138 134 121 139 155 161 166 181 173 182 197 183 193 172 131 75 52 11 56 100 138 124 109 99 97 103 107 107 113 108 109 110 106 103 96 89 92 93 86 85 93 95 91
104 124 107 129 142 136 129 127 127 145 153 156 156 179 212 205 204 211 205 188 174 182 48 49 132 123 128 128 110 98 89 97 109 108 104 104 114 107 105 101 94 88 86 93 94 101 84 77 93
105 127 137 142 139 131 124 121 125 133 142 153 157 162 192 217 227 248 275 65 58 113 127 106 134 127 126 125 107 94 109 110 99 105 106 103 107 109 110 112 105 102 103 95 80 89 77 165 92
116 121 114 118 120 118 113 108 111 118 136 133 133 168 275 260 221 211 143 38 26 112 148 144 151 138 126 113 96 103 121 125 115 100 107 81 86 105 109 101 102 104 113 192 104 115 129 86 89
125 124 120 118 117 114 105 107 128 136 145 152 152 162 23 335 207 167 156 67 19 166 160 153 155 150 129 105 100 117 116 126 103 106 233 103 115 87 96 106 106 107 106 117 137 123 117 134 141
66 120 121 120 124 142 144 144 147 167 153 167 190 166 130 98 156 132 99 13 2 164 176 169 165 154 126 113 121 122 113 131 127 129 180 169 102 94 104 102 113 123 140 132 110 128 157 320 130
145 185 134 134 152 162 259 255 260 276 265 217 213 193 161 174 174 133 51 54 63 150 169 171 169 160 138 126 136 139 147 153 159 151 173 111 94 131 148 136 177 160 168 197 127 120 162 323 105
161 159 141 94 126 153 178 249 263 261 265 260 244 234 202 197 202 174 137 95 100 117 150 153 149 147 133 128 134 139 149 167 175 167 167 169 174 190 214 205 219 249 202 207 249 60 35 326 343
144 215 170 37 16 316 225 243 231 261 268 268 256 243 227 215 214 222 172 149 134 129 151 172 162 162 163 160 123 142 163 167 197 210 195 197 215 241 255 293 303 298 283 279 313 280 317 298 292
165 141 119 54 327 288 276 232 263 275 273 281 270 250 240 231 232 228 213 191 182 173 167 175 195 207 221 235 242 241 225 200 196 213 242 250 235 225 250 269 289 298 304 300 285 313 310 314 290
305 5 40 355 156 6 321 312 299 272 258 260 274 256 244 230 234 235 235 225 207 201 203 208 217 234 246 250 246 251 248 251 242 235 227 240 258 268 247 250 258 257 266 273 287 288 302 306 304
264 7 350 309 315 235 205 257 248 282 274 273 267 284 253 223 243 236 243 247 247 242 235 233 240 248 251 251 259 260 254 248 245 242 253 262 251 258 278 264 247 241 246 264 275 277 287 293 296
351 291 287 260 260 281 252 247 267 258 264 269 281 266 272 261 244 243 238 249 251 258 260 262 262 258 258 258 263 268 261 253 252 260 254 262 254 261 263 266 278 278 266 256 256 262 273 278 277
210 236 252 275 286 291 237 264 211 249 268 261 273 288 281 262 262 268 264 268 264 278 274 273 271 270 269 265 261 263 264 262 261 261 263 264 269 270 266 264 261 261 277 283 279 278 277 274 278
228 247 228 238 267 292 308 300 308 270 257 241 243 259 272 273 255 256 257 263 269 278 292 286 279 279 274 280 275 264 263 259 258 256 255 274 247 237 255 261 260 263 258 265 269 275 277 278 280
228 245 242 249 250 263 286 310 271 292 239 236 244 251 260 266 267 264 256 250 262 279 291 289 302 236 265 285 275 268 265 270 268 265 260 255 268 265 262 258 269 251 267 266 268 270 273 275 276
244 252 254 270 258 277 288 278 263 276 282 287 180 297 283 263 272 268 263 254 256 270 270 289 288 252 242 287 286 279 278 274 270 264 266 264 260 261 262 264 267 259 276 264 265 268 270 273 275
261 246 217 245 263 257 231 234 265 273 282 290 287 291 284 273 272 266 254 252 255 270 275 281 285 289 306 304 281 279 271 267 261 267 259 266 260 264 260 260 266 268 263 260 259 262 265 268 270
231 254 235 220 238 261 281 253 252 259 271 277 278 278 272 267 269 280 269 272 273 274 269 272 276 282 291 292 295 282 275 267 260 281 278 266 261 263 263 264 264 263 261 265 263 265 266 268 267
238 211 240 242 241 248 241 280 274 262 259 268 279 282 269 270 270 275 278 270 258 253 261 267 272 274 275 282 277 272 280 276 275 276 294 271 265 258 255 261 261 262 262 261 268 269 268 270 274
247 236 226 220 218 251 257 254 261 269 273 277 278 279 278 270 267 270 273 271 271 259 263 264 267 269 269 271 270 278 271 270 282 282 288 280 277 281 264 259 282 266 257 271 273 275 274 277 276
244 225 257 245 230 235 237 268 262 262 263 267 270 272 271 275 271 269 269 267 269 268 267 266 268 271 273 276 279 278 281 283 277 284 268 271 279 279 265 269 285 284 276 271 277 271 275 280 275
Height
5876 5878 5880 5879 5883 5884 5887 5892 5896 5898 5899 5901 5901 5903 5905 5905 5907 5911 5911 5911 5912 5913 5914 5915 5915 5915 5914 5914 5915 5916 5916 5917 5916 5916 5916 5916 5915 5915 5915 5915 5915 5915 5916 5917 5916 5916 5916 5915 5914
5882 5883 5884 5883 5887 5890 5892 5895 5897 5900 5902 5902 5905 5905 5907 5908 5909 5911 5913 5914 5915 5916 5917 5918 5918 5917 5917 5916 5918 5919 5919 5919 5919 5918 5917 5917 5917 5916 5916 5916 5917 5917 5918 5919 5919 5919 5918 5917 5917
5885 5887 5885 5886 5890 5894 5895 5897 5900 5902 5905 5907 5908 5909 5910 5911 5912 5914 5915 5916 5917 5918 5919 5919 5919 5919 5920 5920 5920 5921 5922 5922 5920 5919 5919 5918 5918 5918 5918 5919 5919 5920 5921 5921 5921 5921 5921 5920 5919
5889 5892 5889 5892 5896 5897 5900 5902 5903 5906 5907 5908 5909 5911 5912 5913 5915 5916 5918 5919 5919 5920 5920 5920 5920 5921 5922 5923 5924 5924 5924 5924 5922 5921 5921 5920 5920 5920 5920 5921 5922 5923 5923 5924 5924 5924 5923 5923 5922
5882 5890 5889 5896 5900 5901 5904 5906 5908 5908 5909 5911 5912 5914 5915 5916 5919 5919 5921 5921 5922 5922 5921 5922 5922 5923 5924 5925 5926 5926 5926 5925 5925 5924 5923 5922 5922 5923 5923 5924 5925 5925 5926 5927 5927 5927 5926 5925 5925
5882 5896 5897 5899 5903 5905 5907 5908 5910 5910 5911 5913 5915 5917 5918 5919 5921 5923 5923 5923 5923 5924 5923 5924 5924 5924 5925 5926 5926 5927 5926 5928 5926 5925 5924 5924 5925 5926 5926 5927 5928 5928 5929 5929 5929 5929 5929 5928 5928
5890 5894 5901 5902 5904 5908 5909 5910 5911 5912 5914 5915 5917 5918 5920 5921 5922 5923 5924 5924 5925 5926 5925 5926 5926 5926 5926 5927 5928 5928 5928 5927 5927 5927 5927 5927 5927 5928 5929 5929 5930 5931 5931 5932 5932 5932 5932 5931 5931
5893 5900 5904 5905 5907 5909 5911 5911 5913 5914 5916 5917 5919 5920 5922 5923 5923 5924 5926 5927 5927 5927 5927 5926 5926 5928 5928 5929 5930 5929 5929 5929 5929 5929 5929 5930 5930 5930 5931 5933 5933 5934 5934 5934 5934 5935 5935 5935 5935
5902 5907 5906 5906 5909 5912 5913 5913 5914 5916 5918 5919 5922 5923 5923 5924 5924 5926 5926 5927 5928 5928 5928 5927 5926 5926 5930 5931 5931 5931 5931 5931 5931 5931 5931 5932 5933 5932 5933 5935 5936 5935 5936 5937 5937 5937 5935 5936 5937
5907 5908 5908 5909 5912 5913 5915 5916 5917 5919 5920 5922 5923 5924 5924 5925 5925 5925 5927 5927 5928 5928 5929 5928 5928 5929 5931 5933 5933 5933 5933 5934 5933 5933 5935 5934 5936 5935 5936 5938 5938 5938 5939 5940 5940 5938 5942 5943 5941
5911 5911 5911 5913 5915 5915 5916 5917 5918 5920 5922 5924 5924 5924 5924 5926 5926 5927 5926 5927 5928 5928 5930 5931 5931 5932 5933 5934 5935 5936 5935 5934 5936 5937 5938 5938 5937 5938 5939 5940 5940 5940 5941 5943 5944 5944 5945 5938 5941
5911 5915 5916 5917 5918 5918 5919 5919 5920 5922 5924 5926 5926 5926 5927 5927 5927 5927 5928 5927 5928 5929 5930 5932 5934 5935 5936 5937 5938 5935 5934 5935 5932 5940 5938 5942 5943 5941 5942 5943 5943 5943 5944 5921 5931 5948 5949 5941 5941
5917 5918 5919 5920 5920 5921 5921 5922 5923 5924 5926 5926 5927 5927 5927 5929 5928 5930 5929 5928 5927 5929 5931 5933 5935 5936 5937 5938 5940 5936 5935 5925 5936 5941 5924 5931 5940 5946 5946 5945 5946 5946 5947 5948 5951 5948 5945 5942 5939
5919 5917 5918 5920 5921 5923 5923 5923 5924 5925 5926 5927 5927 5927 5927 5929 5929 5929 5930 5929 5927 5929 5931 5933 5936 5938 5939 5940 5942 5941 5940 5940 5942 5947 5941 5945 5944 5945 5950 5949 5949 5948 5948 5948 5951 5950 5946 5924 5916
5924 5921 5920 5921 5922 5923 5924 5925 5925 5926 5927 5927 5928 5928 5928 5929 5931 5931 5930 5931 5930 5931 5933 5935 5937 5938 5940 5942 5944 5944 5945 5944 5946 5948 5943 5943 5943 5948 5952 5952 5951 5950 5949 5950 5951 5953 5947 5946 5951
5919 5918 5921 5922 5923 5924 5925 5925 5926 5927 5928 5928 5929 5930 5929 5930 5931 5934 5933 5933 5932 5934 5937 5938 5939 5941 5942 5944 5945 5946 5946 5946 5947 5949 5951 5951 5951 5953 5953 5952 5951 5951 5951 5951 5952 5953 5952 5950 5951
5905 5918 5921 5922 5924 5926 5926 5925 5926 5927 5928 5928 5929 5930 5930 5931 5932 5933 5934 5934 5935 5935 5937 5940 5941 5942 5943 5945 5946 5947 5947 5947 5948 5948 5950 5951 5952 5952 5952 5952 5952 5952 5952 5952 5952 5952 5953 5952 5951
5913 5915 5913 5917 5923 5927 5924 5926 5926 5927 5927 5928 5929 5930 5931 5932 5933 5933 5934 5936 5936 5937 5938 5939 5941 5942 5943 5944 5945 5946 5947 5948 5948 5949 5950 5949 5950 5950 5951 5951 5951 5952 5952 5952 5951 5951 5952 5952 5953
5916 5913 5906 5920 5927 5925 5923 5926 5925 5924 5926 5927 5928 5929 5931 5933 5932 5933 5935 5936 5936 5937 5938 5939 5940 5941 5942 5943 5944 5945 5947 5949 5950 5949 5946 5946 5947 5949 5949 5949 5949 5950 5950 5950 5950 5950 5950 5950 5951
5925 5921 5924 5925 5927 5927 5926 5926 5927 5929 5927 5927 5928 5929 5930 5932 5932 5933 5934 5935 5936 5937 5938 5938 5939 5940 5941 5942 5942 5944 5946 5947 5946 5945 5949 5948 5945 5946 5949 5948 5947 5947 5947 5948 5948 5948 5949 5949 5949
5928 5931 5929 5928 5925 5927 5927 5924 5928 5927 5928 5928 5927 5928 5930 5931 5932 5933 5934 5934 5935 5936 5937 5938 5939 5940 5941 5942 5943 5943 5944 5943 5943 5940 5948 5948 5945 5944 5946 5947 5948 5948 5947 5945 5945 5945 5946 5946 5946
5927 5930 5931 5927 5926 5925 5921 5921 5904 5928 5929 5929 5928 5927 5928 5931 5932 5932 5933 5934 5935 5935 5937 5937 5937 5937 5938 5939 5941 5942 5941 5941 5941 5942 5942 5942 5943 5945 5946 5943 5941 5941 5945 5946 5945 5944 5944 5943 5943
5924 5921 5926 5927 5930 5919 5925 5919 5914 5924 5923 5926 5925 5926 5925 5928 5930 5932 5931 5932 5933 5935 5934 5932 5933 5935 5936 5937 5939 5938 5938 5936 5936 5938 5940 5939 5938 5939 5936 5937 5939 5940 5935 5940 5941 5941 5941 5940 5940
5917 5917 5921 5924 5927 5927 5921 5918 5913 5917 5920 5921 5917 5921 5924 5923 5924 5927 5929 5931 5932 5933 5931 5930 5931 5903 5925 5932 5929 5927 5932 5933 5933 5934 5935 5935 5921 5930 5930 5931 5912 5931 5935 5933 5936 5935 5936 5937 5937
5915 5918 5921 5923 5925 5927 5929 5923 5906 5914 5919 5919 5878 5914 5922 5922 5922 5923 5925 5926 5930 5930 5928 5927 5928 5928 5916 5927 5929 5931 5929 5927 5929 5927 5926 5928 5931 5929 5924 5928 5928 5929 5921 5929 5931 5930 5930 5930 5931
5910 5914 5918 5923 5926 5924 5924 5921 5908 5912 5910 5916 5918 5916 5916 5918 5918 5916 5916 5920 5926 5928 5925 5921 5919 5921 5919 5921 5923 5925 5923 5923 5921 5922 5922 5921 5924 5926 5927 5922 5919 5920 5923 5924 5924 5924 5924 5925 5925
5906 5908 5913 5913 5917 5919 5918 5915 5913 5913 5915 5916 5916 5913 5910 5912 5913 5912 5914 5915 5921 5925 5922 5916 5917 5917 5917 5919 5918 5917 5918 5918 5917 5915 5917 5916 5918 5918 5919 5919 5918 5918 5918 5916 5917 5918 5918 5919 5919
5899 5906 5908 5910 5911 5912 5916 5909 5904 5904 5907 5905 5909 5908 5909 5906 5909 5907 5910 5912 5915 5916 5916 5915 5914 5913 5913 5912 5912 5911 5912 5911 5910 5909 5908 5910 5908 5907 5907 5908 5909 5909 5910 5911 5912 5912 5911 5912 5912
5895 5896 5898 5903 5907 5911 5913 5909 5896 5895 5900 5903 5901 5901 5901 5903 5903 5902 5902 5903 5904 5905 5908 5911 5909 5909 5908 5907 5905 5903 5901 5902 5900 5902 5901 5902 5902 5902 5900 5901 5902 5902 5904 5905 5906 5906 5905 5904 5904
5885 5892 5896 5896 5899 5900 5903 5899 5891 5893 5895 5895 5894 5894 5895 5895 5896 5895 5894 5894 5895 5897 5898 5899 5899 5899 5900 5898 5895 5893 5891 5893 5894 5892 5891 5893 5892 5892 5891 5893 5894 5893 5896 5894 5895 5894 5893 5892 5893